{"data":{"norad_id":64731,"epoch":"2026-09-20T12:36:47.706624Z","epoch_age_seconds":125440,"freshness":"FRESH","line1":"1 64731U 25144H   26263.52555216  .00026678  00000+0  79778-3 0  9996","line2":"2 64731  53.1605 353.8131 0001110  89.6423 270.4707 15.34404749 69577","mean_motion":15.34404749,"eccentricity":0.000111,"inclination_deg":53.1605,"raan_deg":353.8131,"arg_perigee_deg":89.6423,"mean_anomaly_deg":270.4707,"bstar":0.00079778,"rev_number":6957,"period_min":93.847467621465,"perigee_km":461.92979351481,"apogee_km":463.4484569146,"semimajor_km":6840.8261252147,"source":"CELESTRAK","updated_at":"2026-09-21T09:00:35.410243Z"}}